Tracking 35280 objects as of 7-Sep-2026
HD Live streaming from Space Station
objects crossing your sky now

STARLINK-30327

Track STARLINK-30327 now!
10-day predictions
STARLINK-30327 is classified as:


NORAD ID: 57707
Int'l Code: 2023-129K
Launch date: August 27, 2023
Source: United States (US)
Launch site: AIR FORCE EASTERN TEST RANGE (AFETR)
Your satellite tracking list
Your tracking list is empty




NASA's NSSDC Master Catalog

Two Line Element Set (TLE):
1 57707U 23129K   26249.07301370  .00055289  00000-0  69355-3 0  9997
2 57707  42.9874 128.2912 0033801 219.3078 140.5330 15.58218887168725
Source of the keplerian elements: AFSPC